Onweer radar Meer informatie blitzortung!


Regen radar Meer informatie rain snow radar


Bezoek onze andere website:

Template documentation
and downloads

And another site



15 daagse weersverwachting Leuven (BE)

  • Overzicht
  • Per uur
  • 15 dagen
  • Extra
  • Vergelijk
  • Kaarten
  • Dagkaart
  • Meer »
  • Info
  • Statistieken
  • Directe link
    Temp 6h Neerslag Wind  
 06:10     21:26    Daglengte: 15:16 Vandaag
02:00
14°
 
3
08:00
14°
 
4
14:00
19°
0.7 mm
4
20:00
17°
15.1 mm
3
 06:11     21:24    Daglengte: 15:13 Morgen
02:00
14°
 
2
08:00
14°
3.7 mm
1
14:00
17°
11.2 mm
2
20:00
18°
 
1
 06:13     21:23    Daglengte: 15:10 Dinsdag 03 Aug
02:00
14°
 
1
08:00
14°
 
2
14:00
20°
6.5 mm
2
20:00
19°
20.4 mm
1
warningclass
Locatie info
Region: Vlaanderen
Latitude: 50.8788°N
Longitude: 4.7059°E
28 masl
Postcode: 3000
Temp/Neerslag /Baro Onweer/Dauwpunt
    Temp Baro 1h Neerslag Dauwpunt Wind UV Bewolking  
 06:10     21:26    Daglengte: 15:16 Vandaag
01:00
15°
1010.5 hPa
48%
13.1°
3
Windvlaag: 3.1 m/s
20%
02:00
14°
1010.4 hPa
14%
12.7°
3
Windvlaag: 3.6 m/s
7%
03:00
14°
1010.1 hPa
14%
12.1°
3
Windvlaag: 4.2 m/s
6%
04:00
13°
1009.7 hPa
14%
11.9°
3
Windvlaag: 4.4 m/s
4%
05:00
13°
1009.5 hPa
14%
12.0°
3
Windvlaag: 4 m/s
9%
06:00
13°
1009.7 hPa
14%
12.2°
3
Windvlaag: 4.1 m/s
55%
07:00
13°
1009.7 hPa
14%
12.6°
3
Windvlaag: 4.7 m/s
71%
08:00
14°
1009.8 hPa
14%
13.4°
4
Windvlaag: 4.9 m/s
75%
09:00
15°
1010.0 hPa
17%
13.9°
4
Windvlaag: 4.9 m/s
68%
10:00
16°
1010.4 hPa
17%
13.9°
4
Windvlaag: 4.9 m/s
75%
11:00
17°
1010.5 hPa
58%
14.1°
4
Windvlaag: 4.1 m/s
60%
12:00
18°
1010.5 hPa
79%
13.0°
4
Windvlaag: 3.8 m/s
38%
13:00
19°
1010.3 hPa
82%
11.6°
4
Windvlaag: 3.6 m/s
45%
14:00
19°
1010.1 hPa 0.7 mm
82%
13.5°
4
Windvlaag: 3.6 m/s
43%
15:00
19°
1010.1 hPa 0.8 mm
82%
13.9°
4
Windvlaag: 2.5 m/s
66%
16:00
19°
1010.2 hPa 1.2 mm
82%
13.8°
4
Windvlaag: 2.4 m/s
65%
17:00
19°
1010.2 hPa 1.5 mm
82%
16.0°
4
Windvlaag: 0.4 m/s
55% warningclass
18:00
18°
1010.4 hPa 3.2 mm
81%
15.9°
4
Windvlaag: 0.8 m/s
55%
19:00
18°
1010.5 hPa 4.3 mm
80%
14.4°
3
Windvlaag: -0.3 m/s
65%
20:00
17°
1010.8 hPa 4.2 mm
78%
12.8°
3
Windvlaag: -0.7 m/s
49%
21:00
16°
1011.1 hPa
81%
12.9°
2
Windvlaag: -0 m/s
30%
22:00
16°
1011.7 hPa
80%
13.5°
2
Windvlaag: 0.2 m/s
35%
23:00
15°
1012.2 hPa
82%
13.5°
2
Windvlaag: -0.7 m/s
25%
 06:11     21:24    Daglengte: 15:13 Morgen
00:00
15°
1012.3 hPa
82%
13.3°
2
Windvlaag: -0.9 m/s
14%
01:00
14°
1012.4 hPa
69%
13.1°
2
Windvlaag: -0.2 m/s
49%
02:00
14°
1012.3 hPa
20%
13.1°
2
Windvlaag: 1.2 m/s
56%
03:00
14°
1012.2 hPa
24%
13.1°
1
Windvlaag: 1.3 m/s
60%
04:00
14°
1012.3 hPa
32%
13.2°
1
Windvlaag: 0.9 m/s
57%
05:00
14°
1012.3 hPa
74%
13.2°
1
Windvlaag: 1 m/s
59%
06:00
14°
1012.6 hPa
82%
13.5°
1
Windvlaag: 0.7 m/s
62%
07:00
14°
1013.0 hPa
82%
13.7°
1
Windvlaag: 0.1 m/s
66%
08:00
14°
1013.3 hPa 3.7 mm
81%
13.7°
1
Windvlaag: -0.6 m/s
70%
09:00
15°
1013.6 hPa 3.7 mm
82%
13.4°
1
Windvlaag: -1.3 m/s
67%
10:00
15°
1013.8 hPa
82%
13.7°
2
Windvlaag: -0.4 m/s
66%
11:00
16°
1014.2 hPa
82%
13.8°
2
Windvlaag: -0 m/s
63%
12:00
16°
1014.3 hPa 3.7 mm
82%
13.9°
1
Windvlaag: 0.4 m/s
68%
13:00
16°
1014.3 hPa 3.8 mm
82%
13.4°
2
Windvlaag: 0.6 m/s
69%
14:00
17°
1014.3 hPa
82%
11.3°
2
Windvlaag: 1.1 m/s
77%
15:00
18°
1014.1 hPa
82%
10.6°
2
Windvlaag: 3.3 m/s
76%
16:00
18°
1014.0 hPa
81%
11.0°
2
Windvlaag: 3.5 m/s
25%
17:00
19°
1013.6 hPa
99%
11.9°
2
Windvlaag: 3.2 m/s
16%
18:00
19°
1013.4 hPa
47%
11.7°
1
Windvlaag: 2.3 m/s
55%
19:00
18°
1013.4 hPa
38%
10.7°
1
Windvlaag: 1.8 m/s
80%
20:00
18°
1013.4 hPa
22%
10.5°
1
Windvlaag: -1.1 m/s
80%
21:00
17°
1013.7 hPa
21%
9.9°
2
Windvlaag: -1 m/s
84%
22:00
16°
1014.2 hPa
21%
10.0°
1
Windvlaag: -0.5 m/s
88%
23:00
15°
1014.4 hPa
24%
9.5°
2
Windvlaag: -1.2 m/s
96%
 06:13     21:23    Daglengte: 15:10 Dinsdag 03 Aug
00:00
15°
1014.4 hPa
27%
9.0°
2
Windvlaag: -1.7 m/s
97%
01:00
15°
1014.4 hPa
21%
8.8°
2
Windvlaag: -1.9 m/s
95%
02:00
14°
1014.3 hPa
21%
9.3°
1
Windvlaag: -1.9 m/s
91%
03:00
14°
1014.0 hPa
24%
8.2°
1
Windvlaag: -1.6 m/s
91%
04:00
13°
1013.8 hPa
25%
9.1°
1
Windvlaag: -1.4 m/s
93%
05:00
13°
1013.7 hPa
32%
9.0°
2
Windvlaag: -1.2 m/s
92%
06:00
13°
1013.6 hPa
33%
9.0°
2
Windvlaag: -1 m/s
94%
07:00
13°
1013.8 hPa
29%
8.7°
2
Windvlaag: -1 m/s
87%
08:00
14°
1013.8 hPa
30%
9.4°
2
Windvlaag: -1 m/s
89%
09:00
15°
1014.1 hPa
31%
9.6°
1
Windvlaag: -1.4 m/s
84%
10:00
16°
1014.1 hPa
35%
10.0°
2
Windvlaag: -2.3 m/s
78%
11:00
17°
1014.0 hPa
36%
9.6°
2
Windvlaag: -2.9 m/s
69%
12:00
18°
1013.7 hPa
82%
8.7°
2
Windvlaag: -2.9 m/s
72%
13:00
19°
1013.4 hPa 6.5 mm
85%
7.9°
2
Windvlaag: -3.5 m/s
71%
14:00
20°
1013.1 hPa
91%
7.4°
2
Windvlaag: -3.7 m/s
53%
15:00
20°
1012.8 hPa
96%
7.2°
1
Windvlaag: 2.6 m/s
58%
16:00
21°
1012.4 hPa
90%
7.5°
1
Windvlaag: 2.8 m/s
47%
17:00
21°
1012.1 hPa
93%
7.0°
1
Windvlaag: 3.1 m/s
47%
18:00
21°
1011.9 hPa 6.5 mm
99%
6.9°
2
Windvlaag: 3 m/s
31%
19:00
20°
1011.8 hPa 6.7 mm
95%
6.3°
2
Windvlaag: 3.1 m/s
13%
20:00
19°
1012.1 hPa 7.1 mm
91%
6.1°
1
Windvlaag: 2.9 m/s
12% warningclass
21:00
18°
1012.4 hPa 6.6 mm
77%
7.7°
2
Windvlaag: 3.3 m/s
13%
22:00
17°
1012.9 hPa
77%
7.2°
1
Windvlaag: 4.8 m/s
14%
23:00
16°
1012.9 hPa
30%
7.5°
1
Windvlaag: 5.9 m/s
14%
 06:14     21:21    Daglengte: 15:07 Woensdag 04 Aug
00:00
16°
1013.1 hPa
25%
8.3°
1
Windvlaag: 6.2 m/s
43%
Temp/Neerslag /Baro Onweer/Dauwpunt
    Temp Baro Neerslag Dauwpunt Wind Bewolking  
 06:10     21:26    Daglengte: 15:16 Vandaag
02:00
14°
1010.4 hPa   12.7°
3
7%
05:00
13°
1009.5 hPa   12.0°
3
9%
08:00
14°
1009.8 hPa   13.4°
4
75%
11:00
17°
1010.5 hPa   14.1°
4
60%
14:00
19°
1010.1 hPa 0.7 mm 13.5°
4
43%
17:00
19°
1010.2 hPa 3.5 mm 16.0°
4
55% warningclass
20:00
17°
1010.8 hPa 11.7 mm 12.8°
3
49%
23:00
15°
1012.2 hPa   13.5°
2
25%
 06:11     21:24    Daglengte: 15:13 Morgen
02:00
14°
1012.3 hPa   13.1°
2
56%
05:00
14°
1012.3 hPa   13.2°
1
59%
08:00
14°
1013.3 hPa 3.7 mm 13.7°
1
70%
11:00
16°
1014.2 hPa 3.7 mm 13.8°
2
63%
14:00
17°
1014.3 hPa 7.6 mm 11.3°
2
77%
17:00
19°
1013.6 hPa   11.9°
2
16%
20:00
18°
1013.4 hPa   10.5°
1
80%
23:00
15°
1014.4 hPa   9.5°
2
96%
 06:13     21:23    Daglengte: 15:10 Dinsdag 03 Aug
02:00
14°
1014.3 hPa   9.3°
1
91%
05:00
13°
1013.7 hPa   9.0°
2
92%
08:00
14°
1013.8 hPa   9.4°
2
89%
11:00
17°
1014.0 hPa   9.6°
2
69%
14:00
20°
1013.1 hPa 6.5 mm 7.4°
2
53%
17:00
21°
1012.1 hPa   7.0°
1
47%
20:00
19°
1012.1 hPa 20.4 mm 6.1°
1
12% warningclass
23:00
16°
1012.9 hPa 6.6 mm 7.5°
1
14%
 06:14     21:21    Daglengte: 15:07 Woensdag 04 Aug
02:00
14°
1013.0 hPa   9.4°
1
66%
05:00
13°
1012.3 hPa 19.2 mm 12.3°
1
1%
08:00
14°
1012.9 hPa 19.4 mm 12.7°
2
1%
11:00
16°
1013.5 hPa 19.7 mm 13.8°
3
1%
14:00
17°
1013.8 hPa 20.6 mm 14.9°
3
1%
17:00
17°
1014.4 hPa 21.3 mm 14.2°
3
1%
20:00
16°
1014.6 hPa 22.1 mm 14.2°
1
1%
23:00
14°
1015.3 hPa 22.4 mm 12.5°
1
1%
 06:16     21:19    Daglengte: 15:03 Donderdag 05 Aug
02:00
13°
1014.8 hPa 22.4 mm 11.5°
2
1%
05:00
11°
1013.5 hPa 22.4 mm 10.9°
3
0%
08:00
13°
1012.6 hPa 22.4 mm 12.2°
3
1%
11:00
16°
1011.6 hPa 22.4 mm 11.4°
4
1%
14:00
17°
1009.9 hPa 22.4 mm 11.3°
5
1%
17:00
15°
1008.1 hPa 24.0 mm 13.3°
5
1%
20:00
14°
1005.9 hPa 25.3 mm 12.3°
5
1%
23:00
14°
1004.6 hPa 25.7 mm 13.3°
6
1%
 06:17     21:18    Daglengte: 15:01 Vrijdag 06 Aug
02:00
15°
1003.5 hPa 26.3 mm 13.7°
5
1%
05:00
14°
1002.6 hPa 27.2 mm 13.3°
6
1%
08:00
14°
1001.6 hPa 28.9 mm 13.5°
7
1%
11:00
15°
1001.9 hPa 34.7 mm 13.8°
8
1%
14:00
16°
1002.6 hPa 35.1 mm 14.4°
9
1%
17:00
18°
1003.1 hPa 36.0 mm 15.0°
8
1%
20:00
17°
1004.8 hPa 37.1 mm 15.2°
8
1%
23:00
15°
1006.9 hPa 37.2 mm 13.2°
7
0%
 06:19     21:16    Daglengte: 14:57 Zaterdag 07 Aug
02:00
14°
1008.1 hPa 37.2 mm 12.4°
7
0%
05:00
13°
1008.7 hPa 37.2 mm 12.3°
6
0%
08:00
14°
1009.3 hPa 37.2 mm 12.2°
5
1%
11:00
18°
1009.6 hPa 37.2 mm 12.1°
6
1%
14:00
20°
1009.3 hPa 37.3 mm 11.4°
6
1%
17:00
21°
1009.0 hPa 37.3 mm 12.4°
4
1%
20:00
19°
1008.7 hPa 37.4 mm 14.4°
3
1%
23:00
17°
1008.6 hPa   13.2°
3
1%
 06:20     21:14    Daglengte: 14:54 Zondag 08 Aug
02:00
17°
1008.3 hPa 75.2 mm 14.3°
4
1%
08:00
16°
1007.6 hPa 96.6 mm 16.0°
4
1%
14:00
21°
1010.0 hPa 117.8 mm 13.2°
9
0%
20:00
16°
1011.4 hPa 120.4 mm 13.3°
9
0%
 06:22     21:12    Daglengte: 14:50 Maandag 09 Aug
02:00
15°
1015.2 hPa 122.3 mm 11.4°
9
0%
08:00
15°
1017.6 hPa 122.4 mm 11.9°
7
1%
14:00
18°
1020.4 hPa 123.9 mm 14.7°
6
1%
20:00
17°
1022.5 hPa 127.4 mm 12.4°
4
1%
 06:23     21:10    Daglengte: 14:47 Dinsdag 10 Aug
02:00
14°
1023.9 hPa 127.7 mm 11.3°
5
1%
08:00
14°
1024.0 hPa 127.7 mm 12.1°
4
1%
14:00
19°
1024.1 hPa 128.2 mm 15.8°
4
1%
20:00
20°
1020.0 hPa 1.0 mm 13.5°
3
47%
 06:25     21:09    Daglengte: 14:44 Woensdag 11 Aug
02:00
15°
1021.1 hPa 0.1 mm 11.8°
1
37%
08:00
15°
1021.0 hPa   12.1°
1
37%
14:00
22°
1020.4 hPa 0.4 mm 12.6°
2
47%
20:00
20°
1020.0 hPa 0.7 mm 13.1°
2
48%
 06:26     21:07    Daglengte: 14:41 Donderdag 12 Aug
02:00
15°
1020.8 hPa 0.2 mm 12.0°
0
37%
08:00
15°
1020.4 hPa 0.2 mm 12.2°
0
52%
14:00
23°
1019.8 hPa 0.3 mm 13.2°
1
56%
20:00
21°
1019.5 hPa 0.4 mm 14.1°
2
51%
 06:28     21:05    Daglengte: 14:37 Vrijdag 13 Aug
02:00
16°
1020.1 hPa   12.8°
0
44%
08:00
16°
1020.1 hPa 0.2 mm 13.0°
1
52%
14:00
23°
1019.7 hPa 0.5 mm 13.5°
2
55%
20:00
21°
1019.1 hPa 0.2 mm 14.1°
1
44%
 06:29     21:03    Daglengte: 14:34 Zaterdag 14 Aug
02:00
16°
1019.6 hPa 0.3 mm 13.0°
1
53%
08:00
16°
1019.4 hPa 0.3 mm 13.0°
1
59%
14:00
23°
1018.9 hPa 0.6 mm 13.5°
1
59%
20:00
21°
1018.2 hPa 0.4 mm 14.3°
1
47%
 06:31     21:01    Daglengte: 14:30 Zondag 15 Aug
02:00
16°
1018.8 hPa 0.1 mm 12.9°
1
41%
08:00
16°
1018.4 hPa 0.2 mm 13.3°
1
46%
14:00
22°
1018.0 hPa 0.4 mm 14.3°
2
57%
20:00
21°
1017.7 hPa 0.8 mm 14.3°
2
50%
  CAPE Lifted Index Hail Supercell Tornado SRH 3km CL BTM PRES CL TOP PRES Swiss DWD icon SMHI TS
 06:10     21:26    Daglengte: 15:16 Vandaag
01:00 101 J/kg -0.7 K 0 % 0 % 0 % 0 m²/s² 0 0 0.62 2
02:00 0 J/kg 0.1 K 0 % 0 % 0 % 0 m²/s² 0 0 1.36 1
03:00 0 J/kg 1.1 K 0 % 0 % 0 % 0 m²/s² 0 0 2.36 1
04:00 0 J/kg 2.2 K 0 % 0 % 0 % 0 m²/s² 0 0 3.4 1
05:00 0 J/kg 2.5 K 0 % 0 % 0 % 0 m²/s² 0 0 3.76 2
06:00 0 J/kg 2.4 K 0 % 0 % 0 % 0 m²/s² 0 0 3.84 2
07:00 1 J/kg 1.7 K 0 % 0 % 0 % 0 m²/s² 0 0 3.17 3
08:00 2 J/kg 1.2 K 0 % 0 % 0 % 0 m²/s² 0 0 2.73 3
09:00 2 J/kg 0.9 K 0 % 0 % 0 % 0 m²/s² 0 0 2.43 3
10:00 2 J/kg 0.9 K 0 % 0 % 0 % 0 m²/s² 0 0 2.49 3
11:00 0 J/kg 0.0 K 0 % 0 % 0 % 0 m²/s² 0 0 1.47 3
12:00 246 J/kg -0.6 K 0 % 0 % 0 % 0 m²/s² 0 0 0.78 2
13:00 539 J/kg -2.1 K 0 % 0 % 0 % 0 m²/s² 0 0 -0.69 3
14:00 565 J/kg -2.1 K 0 % 0 % 0 % 0 m²/s² 0 0 -0.69 80
15:00 475 J/kg -2.0 K 0 % 0 % 0 % 0 m²/s² 0 0 -0.95 80
16:00 526 J/kg -2.4 K 0 % 0 % 0 % 0 m²/s² 0 0 -1.92 80
17:00 567 J/kg -3.0 K 0 % 0 % 0 % 0 m²/s² 0 0 -3 95
18:00 197 J/kg -1.4 K 0 % 0 % 0 % 0 m²/s² 0 0 -1.31 80
19:00 385 J/kg -1.4 K 0 % 0 % 0 % 0 m²/s² 0 0 -0.92 80
20:00 128 J/kg -0.1 K 0 % 0 % 0 % 0 m²/s² 0 0 1.07 80
21:00 68 J/kg 0.2 K 0 % 0 % 0 % 0 m²/s² 0 0 1.16 80
22:00 86 J/kg 0.6 K 0 % 0 % 0 % 0 m²/s² 0 0 1.47 80
23:00 101 J/kg 0.5 K 0 % 0 % 0 % 0 m²/s² 0 0 1.34 80
 06:11     21:24    Daglengte: 15:13 Morgen
00:00 139 J/kg 0.4 K 0 % 0 % 0 % 0 m²/s² 0 0 1.63 3
01:00 127 J/kg 0.6 K 0 % 0 % 0 % 0 m²/s² 0 0 1.98 3
02:00 62 J/kg 1.4 K 0 % 0 % 0 % 0 m²/s² 0 0 2.21 3
03:00 4 J/kg 2.0 K 0 % 0 % 0 % 0 m²/s² 0 0 2.96 3
04:00 0 J/kg 2.1 K 0 % 0 % 0 % 0 m²/s² 0 0 2.73 3
05:00 0 J/kg 2.1 K 0 % 0 % 0 % 0 m²/s² 0 0 2.79 3
06:00 0 J/kg 2.1 K 0 % 0 % 0 % 0 m²/s² 0 0 2.79 80
07:00 0 J/kg 1.9 K 0 % 0 % 0 % 0 m²/s² 0 0 2.68 80
08:00 1 J/kg 1.6 K 0 % 0 % 0 % 0 m²/s² 0 0 2.41 80
09:00 0 J/kg 1.5 K 0 % 0 % 0 % 0 m²/s² 0 0 1.74 80
10:00 3 J/kg 2.6 K 0 % 0 % 0 % 0 m²/s² 0 0 4.19 80
11:00 3 J/kg 2.2 K 0 % 0 % 0 % 0 m²/s² 0 0 3.67 80
12:00 5 J/kg 1.9 K 0 % 0 % 0 % 0 m²/s² 0 0 4.06 80
13:00 1 J/kg 2.1 K 0 % 0 % 0 % 0 m²/s² 0 0 4.32 80
14:00 84 J/kg 1.3 K 0 % 0 % 0 % 0 m²/s² 0 0 3.67 80
15:00 181 J/kg 0.4 K 0 % 0 % 0 % 0 m²/s² 0 0 1.21 61
16:00 335 J/kg -0.6 K 0 % 0 % 0 % 0 m²/s² 0 0 0.66 3
17:00 369 J/kg -0.8 K 0 % 0 % 0 % 0 m²/s² 0 0 0.73 2
18:00 293 J/kg -0.6 K 0 % 0 % 0 % 0 m²/s² 0 0 1.17 2
19:00 118 J/kg 0.1 K 0 % 0 % 0 % 0 m²/s² 0 0 1.75 3
20:00 108 J/kg 0.7 K 0 % 0 % 0 % 0 m²/s² 0 0 1.39 3
21:00 28 J/kg 1.3 K 0 % 0 % 0 % 0 m²/s² 0 0 3.73 3
22:00 0 J/kg 1.4 K 0 % 0 % 0 % 0 m²/s² 0 0 3.77 3
23:00 0 J/kg 1.1 K 0 % 0 % 0 % 0 m²/s² 0 0 4.07 3
 06:13     21:23    Daglengte: 15:10 Dinsdag 03 Aug
00:00 0 J/kg 1.2 K 0 % 0 % 0 % 0 m²/s² 0 0 1.83 3
01:00 0 J/kg 1.3 K 0 % 0 % 0 % 0 m²/s² 0 0 1.9 3
02:00 0 J/kg 1.0 K 0 % 0 % 0 % 0 m²/s² 0 0 1.3 3
03:00 0 J/kg 0.7 K 0 % 0 % 0 % 0 m²/s² 0 0 1.93 3
04:00 0 J/kg 0.9 K 0 % 0 % 0 % 0 m²/s² 0 0 3 3
05:00 0 J/kg 0.7 K 0 % 0 % 0 % 0 m²/s² 0 0 1.96 3
06:00 0 J/kg 0.9 K 0 % 0 % 0 % 0 m²/s² 0 0 1.77 3
07:00 0 J/kg 1.4 K 0 % 0 % 0 % 0 m²/s² 0 0 2.27 3
08:00 0 J/kg 2.6 K 0 % 0 % 0 % 0 m²/s² 0 0 3.5 3
09:00 0 J/kg 3.4 K 0 % 0 % 0 % 0 m²/s² 0 0 4.3 3
10:00 0 J/kg 3.6 K 0 % 0 % 0 % 0 m²/s² 0 0 4.8 3
11:00 0 J/kg 3.9 K 0 % 0 % 0 % 0 m²/s² 0 0 5.07 3
12:00 0 J/kg 4.4 K 0 % 0 % 0 % 0 m²/s² 0 0 5.72 3
13:00 0 J/kg 4.6 K 0 % 0 % 0 % 0 m²/s² 0 0 6.04 80
14:00 0 J/kg 4.8 K 0 % 0 % 0 % 0 m²/s² 0 0 6.06 3
15:00 0 J/kg 4.0 K 0 % 0 % 0 % 0 m²/s² 0 0 5.38 3
16:00 0 J/kg 3.2 K 0 % 0 % 0 % 0 m²/s² 0 0 4.46 3
17:00 4 J/kg 3.6 K 0 % 0 % 0 % 0 m²/s² 0 0 4.92 3
18:00 16 J/kg 3.8 K 0 % 0 % 0 % 0 m²/s² 0 0 4.97 2
19:00 13 J/kg 4.2 K 0 % 0 % 0 % 0 m²/s² 0 0 5.58 80
20:00 14 J/kg 4.3 K 0 % 0 % 0 % 0 m²/s² 0 0 5.86 95
21:00 13 J/kg 4.3 K 0 % 0 % 0 % 0 m²/s² 0 0 5.95 80
22:00 25 J/kg 3.8 K 0 % 0 % 0 % 0 m²/s² 0 0 5.66 2
23:00 0 J/kg 4.0 K 0 % 0 % 0 % 0 m²/s² 0 0 5.92 1
 06:14     21:21    Daglengte: 15:07 Woensdag 04 Aug
00:00 0 J/kg 4.0 K 0 % 0 % 0 % 0 m²/s² 0 0 5.92 45
Temp Baro Wind Neerslag
  EWN Forecast EWN WRFDA DWD ICON FMI HIRLAM MET Norway GFS
 06:10     21:26    Daglengte: 15:16 Vandaag
02:00 14.3° 1010.4 hPa 2.9 m/s 0.0 mm 14.1° 1009.4 hPa 2.8 m/s 2.5 mm 14.4° 1010.8 hPa 2.6 m/s -0.8 mm 14.0° 1009.9 hPa 2.9 m/s 0.0 mm 12.6° 1010.4 hPa 3.3 m/s
05:00 13.0° 1009.5 hPa 3.1 m/s 0.0 mm 12.1° 1008.4 hPa 2.9 m/s 3.7 mm 12.4° 1009.9 hPa 2.9 m/s 0.0 mm 13.2° 1009.2 hPa 3.0 m/s 0.0 mm 11.2° 1009.9 hPa 3.6 m/s
08:00 14.0° 1009.8 hPa 3.9 m/s 0.0 mm 12.7° 1008.2 hPa 3.4 m/s 3.7 mm 14.0° 1010.1 hPa 4.0 m/s 0.0 mm 14.1° 1009.0 hPa 4.0 m/s 0.0 mm 13.3° 1010.1 hPa 4.4 m/s
11:00 16.9° 1010.5 hPa 4.1 m/s 0.0 mm 14.7° 1009.1 hPa 3.8 m/s 3.7 mm 17.2° 1010.9 hPa 4.0 m/s 0.0 mm 18.0° 1009.2 hPa 4.2 m/s 0.0 mm 18.6° 1010.4 hPa 5.4 m/s
14:00 19.0° 1010.1 hPa 4.3 m/s 0.7 mm 21.0° 1008.4 hPa 4.4 m/s 3.7 mm 18.6° 1011.1 hPa 4.2 m/s 0.3 mm 20.0° 1009.0 hPa 5.0 m/s 0.0 mm 20.3° 1010.0 hPa 6.1 m/s
17:00 18.6° 1010.2 hPa 3.8 m/s 3.5 mm 18.1° 1008.3 hPa 3.6 m/s 9.4 mm 18.7° 1010.6 hPa 3.8 m/s 1.4 mm 19.2° 1009.1 hPa 3.9 m/s 0.0 mm 19.7° 1010.7 hPa 5.8 m/s
20:00 17.2° 1010.8 hPa 2.6 m/s 11.7 mm 19.4° 1009.0 hPa 4.4 m/s 48.2 mm 16.9° 1011.1 hPa 2.2 m/s 2.5 mm 17.8° 1009.8 hPa 3.1 m/s 0.0 mm 17.4° 1011.0 hPa 4.0 m/s
23:00 15.1° 1012.2 hPa 1.9 m/s 0.0 mm 15.9° 1010.5 hPa 2.4 m/s 52.0 mm 15.1° 1012.4 hPa 1.5 m/s 1.3 mm 15.2° 1011.8 hPa 1.8 m/s 0.0 mm 13.9° 1012.8 hPa 2.4 m/s
 06:11     21:24    Daglengte: 15:13 Morgen
02:00 14.2° 1012.3 hPa 1.5 m/s 0.0 mm 13.7° 1010.7 hPa 1.7 m/s 52.0 mm 14.3° 1012.4 hPa 1.5 m/s 0.2 mm 15.1° 1011.7 hPa 1.7 m/s 0.0 mm 12.6° 1013.3 hPa 1.2 m/s
05:00 13.9° 1012.3 hPa 1.0 m/s 0.0 mm 12.4° 1010.8 hPa 1.3 m/s 52.0 mm 14.0° 1012.4 hPa 1.2 m/s 0.0 mm 15.0° 1012.0 hPa 0.9 m/s 0.0 mm 11.9° 1013.7 hPa 1.1 m/s
08:00 14.3° 1013.3 hPa 1.2 m/s 3.7 mm 12.8° 1011.6 hPa 2.0 m/s 52.0 mm 14.5° 1013.5 hPa 1.6 m/s 0.7 mm 15.4° 1013.1 hPa 1.0 m/s 0.0 mm 13.9° 1014.5 hPa 0.6 m/s
11:00 15.6° 1014.2 hPa 1.7 m/s 3.7 mm 15.3° 1012.2 hPa 2.8 m/s 52.2 mm 16.1° 1014.1 hPa 2.0 m/s 0.9 mm 15.8° 1014.4 hPa 1.5 m/s 0.0 mm 16.9° 1014.6 hPa 1.6 m/s
14:00 17.2° 1014.3 hPa 1.6 m/s 7.6 mm 18.2° 1012.2 hPa 2.5 m/s 52.8 mm 17.0° 1014.2 hPa 1.8 m/s 1.1 mm 19.2° 1014.6 hPa 1.7 m/s 0.0 mm 19.0° 1014.1 hPa 2.0 m/s
17:00 18.5° 1013.6 hPa 1.9 m/s 0.0 mm 20.4° 1011.6 hPa 2.7 m/s 53.9 mm 18.4° 1013.9 hPa 2.0 m/s 0.3 mm 19.9° 1013.5 hPa 1.8 m/s
20:00 18.0° 1013.4 hPa 1.4 m/s 0.0 mm 19.9° 1011.8 hPa 2.2 m/s 56.9 mm 17.7° 1013.6 hPa 1.0 m/s 0.0 mm 18.6° 1013.1 hPa 1.2 m/s
23:00 15.5° 1014.4 hPa 1.6 m/s 0.0 mm 15.6° 1012.6 hPa 3.1 m/s 57.7 mm 15.8° 1014.6 hPa 0.3 m/s 0.0 mm 14.6° 1013.6 hPa 1.4 m/s
 06:13     21:23    Daglengte: 15:10 Dinsdag 03 Aug
02:00 14.4° 1014.3 hPa 1.5 m/s 0.0 mm 14.6° 1012.8 hPa 1.4 m/s 57.7 mm 14.5° 1014.5 hPa 1.1 m/s 0.0 mm 13.9° 1012.9 hPa 1.2 m/s
05:00 13.1° 1013.7 hPa 1.6 m/s 0.0 mm 13.5° 1011.9 hPa 1.7 m/s 57.8 mm 13.1° 1014.0 hPa 0.8 m/s 0.0 mm 13.5° 1012.2 hPa 1.8 m/s
08:00 13.7° 1013.8 hPa 1.7 m/s 0.0 mm 13.8° 1012.0 hPa 2.1 m/s 57.8 mm 14.0° 1014.2 hPa 0.8 m/s 0.0 mm 14.2° 1012.6 hPa 1.4 m/s
11:00 16.9° 1014.0 hPa 2.2 m/s 0.0 mm 17.0° 1012.1 hPa 2.5 m/s 57.8 mm 17.8° 1014.2 hPa 0.7 m/s 0.0 mm 14.4° 1012.6 hPa 1.6 m/s
14:00 19.7° 1013.1 hPa 2.3 m/s 6.5 mm 20.4° 1010.9 hPa 2.8 m/s 57.8 mm 19.7° 1013.4 hPa 1.1 m/s 0.3 mm 14.3° 1012.5 hPa 1.8 m/s
17:00 20.8° 1012.1 hPa 1.1 m/s 0.0 mm 22.1° 1010.8 hPa 3.0 m/s 57.8 mm 20.5° 1012.5 hPa 0.6 m/s 0.1 mm 17.4° 1012.5 hPa 1.6 m/s
20:00 19.4° 1012.1 hPa 1.2 m/s 20.4 mm 21.5° 1011.1 hPa 2.8 m/s 57.8 mm 18.9° 1012.4 hPa 0.9 m/s 1.7 mm 16.3° 1012.9 hPa 1.2 m/s
23:00 16.5° 1012.9 hPa 1.4 m/s 6.6 mm 19.1° 1012.1 hPa 4.1 m/s 57.8 mm 15.8° 1013.1 hPa 0.7 m/s 0.4 mm 13.4° 1013.8 hPa 1.0 m/s
 06:14     21:21    Daglengte: 15:07 Woensdag 04 Aug
02:00 14.3° 1013.0 hPa 0.8 m/s 0.0 mm 15.6° 1012.6 hPa 2.7 m/s 57.8 mm 14.0° 1013.1 hPa 0.3 m/s 0.0 mm 13.3° 1013.2 hPa 1.3 m/s
05:00 13.3° 1012.3 hPa 1.5 m/s 19.2 mm 13.3° 1012.3 hPa 1.5 m/s 19.2 mm
08:00 14.2° 1012.9 hPa 1.7 m/s 19.4 mm 14.2° 1012.9 hPa 1.7 m/s 19.4 mm
11:00 16.4° 1013.5 hPa 3.2 m/s 19.7 mm 16.4° 1013.5 hPa 3.2 m/s 19.7 mm
14:00 16.9° 1013.8 hPa 3.1 m/s 20.6 mm 16.9° 1013.8 hPa 3.1 m/s 20.6 mm
17:00 17.3° 1014.4 hPa 2.8 m/s 21.3 mm 17.3° 1014.4 hPa 2.8 m/s 21.3 mm
20:00 16.4° 1014.6 hPa 1.4 m/s 22.1 mm 16.4° 1014.6 hPa 1.4 m/s 22.1 mm
23:00 13.6° 1015.3 hPa 0.7 m/s 22.4 mm 13.6° 1015.3 hPa 0.7 m/s 22.4 mm
 06:16     21:19    Daglengte: 15:03 Donderdag 05 Aug
02:00 12.5° 1014.8 hPa 1.8 m/s 22.4 mm 12.5° 1014.8 hPa 1.8 m/s 22.4 mm
05:00 11.4° 1013.5 hPa 2.5 m/s 22.4 mm 11.4° 1013.5 hPa 2.5 m/s 22.4 mm
08:00 13.0° 1012.6 hPa 2.8 m/s 22.4 mm 13.0° 1012.6 hPa 2.8 m/s 22.4 mm
11:00 16.1° 1011.6 hPa 4.1 m/s 22.4 mm 16.1° 1011.6 hPa 4.1 m/s 22.4 mm
14:00 17.2° 1009.9 hPa 5.0 m/s 22.4 mm 17.2° 1009.9 hPa 5.0 m/s 22.4 mm
17:00 15.1° 1008.1 hPa 4.8 m/s 24.0 mm 15.1° 1008.1 hPa 4.8 m/s 24.0 mm
20:00 13.6° 1005.9 hPa 5.4 m/s 25.3 mm 13.6° 1005.9 hPa 5.4 m/s 25.3 mm
23:00 14.5° 1004.6 hPa 5.6 m/s 25.7 mm 14.5° 1004.6 hPa 5.6 m/s 25.7 mm
 06:17     21:18    Daglengte: 15:01 Vrijdag 06 Aug
02:00 14.5° 1003.5 hPa 5.1 m/s 26.3 mm 14.5° 1003.5 hPa 5.1 m/s 26.3 mm
05:00 14.1° 1002.6 hPa 5.7 m/s 27.2 mm 14.1° 1002.6 hPa 5.7 m/s 27.2 mm
08:00 14.5° 1001.6 hPa 7.3 m/s 28.9 mm 14.5° 1001.6 hPa 7.3 m/s 28.9 mm
11:00 15.0° 1001.9 hPa 8.2 m/s 34.7 mm 15.0° 1001.9 hPa 8.2 m/s 34.7 mm
14:00 16.2° 1002.6 hPa 8.9 m/s 35.1 mm 16.2° 1002.6 hPa 8.9 m/s 35.1 mm
17:00 17.7° 1003.1 hPa 7.7 m/s 36.0 mm 17.7° 1003.1 hPa 7.7 m/s 36.0 mm
20:00 17.4° 1004.8 hPa 7.6 m/s 37.1 mm 17.4° 1004.8 hPa 7.6 m/s 37.1 mm
23:00 14.8° 1006.9 hPa 6.6 m/s 37.2 mm 14.8° 1006.9 hPa 6.6 m/s 37.2 mm
 06:19     21:16    Daglengte: 14:57 Zaterdag 07 Aug
02:00 13.7° 1008.1 hPa 6.6 m/s 37.2 mm 13.7° 1008.1 hPa 6.6 m/s 37.2 mm
05:00 13.0° 1008.7 hPa 5.6 m/s 37.2 mm 13.0° 1008.7 hPa 5.6 m/s 37.2 mm
08:00 14.1° 1009.3 hPa 4.9 m/s 37.2 mm 14.1° 1009.3 hPa 4.9 m/s 37.2 mm
11:00 17.8° 1009.6 hPa 5.8 m/s 37.2 mm 17.8° 1009.6 hPa 5.8 m/s 37.2 mm
14:00 19.9° 1009.3 hPa 5.6 m/s 37.3 mm 19.9° 1009.3 hPa 5.6 m/s 37.3 mm
17:00 20.9° 1009.0 hPa 4.1 m/s 37.3 mm 20.9° 1009.0 hPa 4.1 m/s 37.3 mm
20:00 18.8° 1008.7 hPa 2.7 m/s 37.4 mm 18.8° 1008.7 hPa 2.7 m/s 37.4 mm
23:00 16.7° 1008.6 hPa 3.4 m/s 37.5 mm 16.7° 1008.6 hPa 3.4 m/s 37.5 mm
 06:20     21:14    Daglengte: 14:54 Zondag 08 Aug
02:00 16.7° 1008.3 hPa 3.7 m/s 37.7 mm 16.7° 1008.3 hPa 3.7 m/s 37.7 mm
08:00 16.3° 1007.6 hPa 3.7 m/s 58.7 mm 16.3° 1007.6 hPa 3.7 m/s 58.7 mm
14:00 21.4° 1010.0 hPa 9.1 m/s 58.9 mm 21.4° 1010.0 hPa 9.1 m/s 58.9 mm
20:00 16.3° 1011.4 hPa 8.9 m/s 61.2 mm 16.3° 1011.4 hPa 8.9 m/s 61.2 mm
 06:22     21:12    Daglengte: 14:50 Maandag 09 Aug
02:00 14.6° 1015.2 hPa 8.5 m/s 61.2 mm 14.6° 1015.2 hPa 8.5 m/s 61.2 mm
08:00 15.1° 1017.6 hPa 7.5 m/s 61.2 mm 15.1° 1017.6 hPa 7.5 m/s 61.2 mm
14:00 18.2° 1020.4 hPa 6.5 m/s 62.6 mm 18.2° 1020.4 hPa 6.5 m/s 62.6 mm
20:00 16.8° 1022.5 hPa 4.2 m/s 63.8 mm 16.8° 1022.5 hPa 4.2 m/s 63.8 mm
 06:23     21:10    Daglengte: 14:47 Dinsdag 10 Aug
02:00 13.8° 1023.9 hPa 4.6 m/s 63.8 mm 13.8° 1023.9 hPa 4.6 m/s 63.8 mm
08:00 13.8° 1024.0 hPa 4.0 m/s 63.9 mm 13.8° 1024.0 hPa 4.0 m/s 63.9 mm
14:00 19.3° 1024.1 hPa 4.5 m/s 64.4 mm 19.3° 1024.1 hPa 4.5 m/s 64.4 mm
20:00 19.9° 1020.0 hPa 2.6 m/s 1.0 mm
 06:25     21:09    Daglengte: 14:44 Woensdag 11 Aug
02:00 14.7° 1021.1 hPa 1.3 m/s 0.1 mm
08:00 14.8° 1021.0 hPa 1.4 m/s 0.0 mm
14:00 21.9° 1020.4 hPa 1.7 m/s 0.4 mm
20:00 20.1° 1020.0 hPa 1.8 m/s 0.7 mm
 06:26     21:07    Daglengte: 14:41 Donderdag 12 Aug
02:00 15.2° 1020.8 hPa 0.2 m/s 0.2 mm
08:00 15.2° 1020.4 hPa 0.4 m/s 0.2 mm
14:00 22.6° 1019.8 hPa 0.9 m/s 0.3 mm
20:00 21.1° 1019.5 hPa 1.5 m/s 0.4 mm
 06:28     21:05    Daglengte: 14:37 Vrijdag 13 Aug
02:00 16.2° 1020.1 hPa 0.3 m/s 0.0 mm
08:00 16.2° 1020.1 hPa 1.0 m/s 0.2 mm
14:00 23.0° 1019.7 hPa 1.5 m/s 0.5 mm
20:00 21.1° 1019.1 hPa 1.2 m/s 0.2 mm
 06:29     21:03    Daglengte: 14:34 Zaterdag 14 Aug
02:00 16.4° 1019.6 hPa 0.6 m/s 0.3 mm
08:00 16.0° 1019.4 hPa 0.8 m/s 0.3 mm
14:00 22.7° 1018.9 hPa 1.4 m/s 0.6 mm
20:00 21.0° 1018.2 hPa 1.4 m/s 0.4 mm
 06:31     21:01    Daglengte: 14:30 Zondag 15 Aug
02:00 16.2° 1018.8 hPa 0.7 m/s 0.1 mm
08:00 15.9° 1018.4 hPa 1.3 m/s 0.2 mm
14:00 22.4° 1018.0 hPa 2.1 m/s 0.4 mm
20:00 20.6° 1017.7 hPa 2.1 m/s 0.8 mm
FMI Hirlam - 7.5 km EWN WRFDA - 12 km DWD ICON - 7 km GFS - 25 km Basiskaart






























































Updatetijd (Europe/Amsterdam) Resolutie Lengte Stap
FMI Hirlam 19:00, 01:00, 07:00, 13:00 7.5 km 49h 1h
EWN WRFDA 22:15, 04:15, 10:15, 16:15 12 km 73h 1h
DWD ICON 23:45, 05:45, 11:45, 17:45 7 km 75h 1h
GFS 20:15, 02:15, 08:15, 14:15 25 km 237h 3h
30+ mm
25-30 mm
20-25 mm
15-20 mm
10-15 mm
6-10 mm
4-6 mm
2-4 mm
1-2 mm
0.5-1 mm
0.2-0.5 mm
0.1-0.2 mm
30+ mm
25-30 mm
20-25 mm
15-20 mm
10-15 mm
6-10 mm
4-6 mm
2-4 mm
1-2 mm
0.5-1 mm
0.2-0.5 mm
0.1-0.2 mm
Sneeuwval
Natte sneeuw
Hagel
Vorst
30+ mm
25-30 mm
20-25 mm
15-20 mm
10-15 mm
6-10 mm
4-6 mm
2-4 mm
1-2 mm
0.5-1 mm
0.2-0.5 mm
0.1-0.2 mm
Sneeuwval
Natte sneeuw
Hagel
Vorst
Onweer
50 mm
40 mm
30 mm
26 mm
22 mm
18 mm
14 mm
10 mm
9 mm
8 mm
7 mm
6 mm
5 mm
4.5 mm
4 mm
3.5 mm
3 mm
2.5 mm
2 mm
1.5 mm
1 mm
0.8 mm
0.6 mm
0.4 mm
0.2 mm
0.05 mm
35°
30°
25°
20°
15°
10°
-5°
-10°
-15°
-20°
-25°
-30°
-35°
33> m/s
29 m/s
25 m/s
21 m/s
17 m/s
14 m/s
11 m/s
8 m/s
5 m/s
3 m/s
0 m/s
2600 J/kg
2400 J/kg
2200 J/kg
2000 J/kg
1800 J/kg
1600 J/kg
1400 J/kg
1200 J/kg
1000 J/kg
800 J/kg
600 J/kg
400 J/kg
200 J/kg
70 dBZ
65 dBZ
60 dBZ
55 dBZ
50 dBZ
45 dBZ
40 dBZ
35 dBZ
30 dBZ
25 dBZ
20 dBZ
15 dBZ
10 dBZ
5 dBZ
-1 K
-2 K
-3 K
-4 K
-5 K
-6 K
-7 K
-8 K
-9 K
950 m²/s²
900 m²/s²
850 m²/s²
800 m²/s²
750 m²/s²
700 m²/s²
650 m²/s²
600 m²/s²
550 m²/s²
500 m²/s²
450 m²/s²
400 m²/s²
350 m²/s²
300 m²/s²
250 m²/s²
200 m²/s²
150 m²/s²
100 m²/s²
46 m/s
44 m/s
42 m/s
40 m/s
38 m/s
36 m/s
34 m/s
32 m/s
30 m/s
28 m/s
26 m/s
24 m/s
22 m/s
20 m/s
16 m/s
12 m/s
8 m/s
4 m/s
30 m/s
28 m/s
26 m/s
24 m/s
22 m/s
20 m/s
18 m/s
16 m/s
14 m/s
12 m/s
10 m/s
8 m/s
6 m/s
4 m/s
2 m/s
3.0
2.8
2.6
2.4
2.2
2.0
1.8
1.6
1.4
1.2
1.0
0.8
0.6
0.4
0.2
15
14
13
12
11
10
9
8
7
6
5
4
3
2
1
90%
80%
70%
60%
50%
40%
30%
20%
10%
42
40
38
36